"TOA5","AWS1","CR1000","7964","CR1000.Std.14","CPU:AWS1_114.CR1","64363","TBL110"
"TIMESTAMP","RECORD","Wind_spd_WVc(1)","Wind_spd_WVc(2)","Air_Temp_Avg","Humidity_Avg","SW_upper_Wm2_Avg","Rain_Tot","Press_Avg","Issui_Tot","Depth_cm","SR50A_Raw","Quality","Ground_Temp_Avg(1)","Ground_Temp_Avg(2)","SW_lower_Wm2_Avg","Albedo_Avg","SWC_per(1)","SWC_per(2)","Period(1)","Period(2)"
"TS","RN","","","","","","","","","","","","","","","","","","",""
"","","WVc","WVc","Avg","Avg","Avg","Tot","Avg","Tot","Smp","Smp","Smp","Avg","Avg","Avg","Avg","Smp","Smp","Smp","Smp"
"2017-04-14 00:00:00",283597,0.082,98.1,0.447,51.55,0,0,866.0727,0,52.29,2.654,189,0.427,0.809,0.2009887,0,53.16,61.82,34.07,36.09
"2017-04-14 00:10:00",283598,0.017,109.5,0.517,52.1,0,0,866.0727,0,52.11,2.657,184,0.436,0.822,0.1213548,0,53.16,61.82,34.07,36.09
"2017-04-14 00:20:00",283599,0.089,136.6,0.342,54.54,0,0,866.0727,0,52.17,2.656,181,0.438,0.815,0.07205563,0,53.16,61.82,34.07,36.09
"2017-04-14 00:30:00",283600,0.102,125.1,0.469,56.43,0,0,866.0727,0,52.48,2.653,185,0.447,0.821,0.1479058,0,53.16,61.82,34.07,36.09
"2017-04-14 00:40:00",283601,0.087,142.1,0.512,57.96,0,0,866.0917,0,52.16,2.656,184,0.468,0.827,0.1024055,0,53.11,61.82,34.06,36.09
"2017-04-14 00:50:00",283602,0.121,199.8,0.451,60.23,0,0,866.2308,0,52.04,2.658,172,0.48,0.807,0,0,53.16,61.82,34.07,36.09
"2017-04-14 01:00:00",283603,0.327,188,-0.312,65.9,0,0,866.1212,0,52.17,2.66,171,0.488,0.818,0,0,53.16,61.82,34.07,36.09
"2017-04-14 01:10:00",283604,0.134,205.1,0.068,65.06,0,0,866.2561,0,52.02,2.659,172,0.488,0.794,0.08344384,0,53.11,61.82,34.06,36.09
"2017-04-14 01:20:00",283605,0.201,179.5,-0.084,66.17,0,0,866.2888,0,52.27,2.659,192,0.485,0.825,0.007585942,0,53.16,61.82,34.07,36.09
"2017-04-14 01:30:00",283606,0.216,186.2,-0.262,67.23,0,0,866.2993,0,51.93,2.662,186,0.493,0.828,0,0,53.16,61.82,34.07,36.09
"2017-04-14 01:40:00",283607,0.24,194.8,-0.306,67.44,0,0,866.084,0,52.4,2.656,177,0.503,0.815,0.07206789,0,53.16,61.82,34.07,36.09
"2017-04-14 01:50:00",283608,0.031,195.1,0.492,63.24,0,0,866.0911,0,51.8,2.662,177,0.509,0.803,0.3717166,0,53.16,61.82,34.07,36.09
"2017-04-14 02:00:00",283609,0.137,172.6,-0.303,67.87,0,0,866.2614,0,51.91,2.66,184,0.527,0.812,0.03034545,0,53.16,61.82,34.07,36.09
"2017-04-14 02:10:00",283610,0.374,167.9,-0.284,68.24,0,0,866.3103,0,52.02,2.661,176,0.534,0.806,0.07965735,0,53.16,61.82,34.07,36.09
"2017-04-14 02:20:00",283611,0.412,196.6,-0.456,68.64,0,0,866.1109,0,52.19,2.658,175,0.533,0.819,0.01517317,0,53.16,61.88,34.07,36.11
"2017-04-14 02:30:00",283612,0.29,174.2,-0.138,66.6,0,0,866.257,0,52.21,2.66,175,0.519,0.813,0.07207224,0,53.16,61.88,34.07,36.11
"2017-04-14 02:40:00",283613,0.495,195.4,-0.316,66.71,0,0,866.3578,0,51.97,2.662,186,0.519,0.807,0,0,53.16,61.82,34.07,36.09
"2017-04-14 02:50:00",283614,0.332,188.5,-0.377,65.97,0,0,866.477,0,52.23,2.66,183,0.516,0.814,0,0,53.11,61.82,34.06,36.09
"2017-04-14 03:00:00",283615,0.491,189.5,-0.459,63.99,0,0,866.4843,0,51.95,2.663,171,0.525,0.822,0,0,53.16,61.76,34.07,36.08
"2017-04-14 03:10:00",283616,0.616,183.2,-0.851,65.89,0,0,866.4409,0,52.3,2.662,189,0.536,0.819,0,0,53.11,61.82,34.06,36.09
"2017-04-14 03:20:00",283617,0.617,176.7,-1.039,67.41,0,0,866.4789,0,52.28,2.663,180,0.535,0.813,0,0,53.16,61.76,34.07,36.08
"2017-04-14 03:30:00",283618,0.562,180.6,-1.099,68.68,0,0,866.5135,0,52.12,2.665,176,0.532,0.832,0,0,53.16,61.76,34.07,36.08
"2017-04-14 03:40:00",283619,0.507,188.9,-0.944,67.7,0,0,866.5449,0,52.19,2.661,177,0.538,0.821,0.06069387,0,53.16,61.76,34.07,36.08
"2017-04-14 03:50:00",283620,0.025,192.4,-0.122,61.56,0,0,866.6281,0,51.95,2.661,181,0.545,0.821,0.1289746,0,53.11,61.76,34.06,36.08
"2017-04-14 04:00:00",283621,0.038,72.65,0.326,57.57,0,0,866.6188,0,52.16,2.651,179,0.548,0.82,0.4514152,0,53.11,61.82,34.06,36.09
"2017-04-14 04:10:00",283622,0.344,42.89,2.266,43.74,0.3029412,0,866.6357,0,52.17,2.65,190,0.536,0.829,1.938435,3.626,53.16,61.76,34.07,36.08
"2017-04-14 04:20:00",283623,0.764,18.47,2.568,38.51,0,0,866.651,0,51.81,2.647,180,0.51,0.842,1.084919,0,53.11,61.76,34.06,36.08
"2017-04-14 04:30:00",283624,0.824,10.59,3.225,32.15,0,0,866.6494,0,52.24,2.641,178,0.5,0.858,0.5803942,0,53.11,61.82,34.06,36.09
"2017-04-14 04:40:00",283625,0.63,10.89,3.463,29.82,0,0,866.6225,0,52.06,2.643,183,0.515,0.851,0.04552113,0,53.11,61.76,34.06,36.08
"2017-04-14 04:50:00",283626,0.84,43.4,3.339,30.07,0,0,866.6035,0,52.47,2.638,172,0.525,0.835,0,0,53.16,61.82,34.07,36.09
"2017-04-14 05:00:00",283627,0.685,44.31,3.623,28.8,0,0,866.5808,0,51.7,2.647,180,0.52,0.806,0,0,53.11,61.76,34.06,36.08
"2017-04-14 05:10:00",283628,0.792,33.26,3.273,30.32,0,0,866.5802,0,52.21,2.64,178,0.503,0.79,0.01896261,0,53.11,61.76,34.06,36.08
"2017-04-14 05:20:00",283629,0.605,50.16,3.301,32.06,0.007866316,0,866.5791,0,51.16,2.658,180,0.476,0.79,0.2654633,0.209,53.16,61.76,34.07,36.08
"2017-04-14 05:30:00",283630,0.142,172.1,1.132,43.6,0.4562314,0,866.5789,0,52.11,2.655,180,0.465,0.766,0.2389079,0.159,53.11,61.7,34.06,36.06
"2017-04-14 05:40:00",283631,0.468,180.2,0.798,45.98,7.535624,0,866.7579,0,52.37,2.652,193,0.461,0.769,3.811119,0.513,53.11,61.7,34.06,36.06
"2017-04-14 05:50:00",283632,0.404,171.8,0.939,49.24,17.84786,0,866.7327,0,52.35,2.651,188,0.462,0.791,8.335125,0.474,53.11,61.7,34.06,36.06
"2017-04-14 06:00:00",283633,0.622,180.1,1.445,48.13,26.37452,0,866.8317,0,52.28,2.65,188,0.461,0.796,11.78975,0.448,53.11,61.76,34.06,36.08
"2017-04-14 06:10:00",283634,0.494,178.6,1.554,48.92,35.20011,0,866.8275,0,52.43,2.647,189,0.458,0.801,16.06727,0.463,53.11,61.76,34.06,36.08
"2017-04-14 06:20:00",283635,0.358,188.1,2.449,46.66,40.27757,0,866.8338,0,51.98,2.648,188,0.428,0.796,17.65618,0.439,53.11,61.76,34.06,36.08
"2017-04-14 06:30:00",283636,0.366,180.8,2.379,49.14,45.21739,0,866.8697,0,52.19,2.648,181,0.422,0.772,20.76573,0.458,53.11,61.7,34.06,36.06
"2017-04-14 06:40:00",283637,0.346,165.8,2.669,50.05,129.733,0,866.8338,0,52.08,2.642,186,0.424,0.767,55.91502,0.438,53.11,61.76,34.06,36.08
"2017-04-14 06:50:00",283638,0.303,177.2,4.253,44.73,101.9898,0,867.0046,0,52.28,2.638,187,0.482,0.774,43.42752,0.427,53.11,61.76,34.06,36.08
"2017-04-14 07:00:00",283639,0.243,152.5,4.064,46.62,98.24565,0,867.0847,0,52.02,2.641,185,0.453,0.824,44.3983,0.452,53.11,61.76,34.06,36.08
"2017-04-14 07:10:00",283640,0.332,114.9,4.495,46.34,145.5986,0,867.1036,0,51.92,2.637,185,0.426,0.799,67.64788,0.464,53.11,61.76,34.06,36.08
"2017-04-14 07:20:00",283641,0.236,133.8,5.095,41.79,129.3673,0,867.2638,0,52.28,2.633,179,0.477,0.768,56.89339,0.439,53.11,61.76,34.06,36.08
"2017-04-14 07:30:00",283642,0.225,123.2,5.051,42.6,144.543,0,867.0829,0,52.33,2.632,187,0.535,0.817,65.83072,0.455,53.11,61.76,34.06,36.08
"2017-04-14 07:40:00",283643,0.335,143.5,5.389,41.28,198.0154,0,867.0848,0,52.4,2.628,187,0.516,0.804,88.64853,0.449,53.11,61.76,34.06,36.08
"2017-04-14 07:50:00",283644,0.087,65.05,5.714,42.9,235.5433,0,867.2343,0,52.27,2.629,187,0.452,0.777,90.92644,0.408,53.11,61.7,34.06,36.06
"2017-04-14 08:00:00",283645,0.234,148.6,6.216,45.32,427.1677,0,867.247,0,52.13,2.628,174,0.432,0.776,129.1787,0.303,53.11,61.7,34.06,36.06
"2017-04-14 08:10:00",283646,0.127,153.8,6.521,46.05,348.58,0,867.4609,0,51.7,2.631,179,0.388,0.769,125.0277,0.365,53.11,61.7,34.06,36.06
"2017-04-14 08:20:00",283647,0.295,132.5,6.371,48.82,338.6635,0,867.4564,0,51.87,2.63,190,0.457,0.755,123.0078,0.369,53.11,61.7,34.06,36.06
"2017-04-14 08:30:00",283648,0.166,113.9,6.438,50.71,304.2745,0,867.4183,0,52,2.63,177,0.473,0.77,115.629,0.384,53.11,61.7,34.06,36.06
"2017-04-14 08:40:00",283649,0.186,114.5,6.457,50.96,302.6236,0,867.4101,0,51.94,2.629,181,0.405,0.775,128.746,0.422,53.05,61.7,34.04,36.06
"2017-04-14 08:50:00",283650,0.307,221.4,6.583,50.88,310.2389,0,867.4433,0,52.15,2.627,186,0.383,0.771,131.6074,0.425,53.11,61.7,34.06,36.06
"2017-04-14 09:00:00",283651,0.313,131.7,6.955,48.76,571.296,0,867.4069,0,52.23,2.623,185,0.381,0.766,163.6947,0.297,53.11,61.64,34.06,36.05
"2017-04-14 09:10:00",283652,0.66,73.18,7.041,47.18,653.6038,0,867.4323,0,52.66,2.62,191,0.376,0.752,167.5482,0.256,53.11,61.7,34.06,36.06
"2017-04-14 09:20:00",283653,0.88,121.9,7.222,44.24,634.5031,0,867.3763,0,52.78,2.617,188,0.353,0.695,166.7449,0.267,53.11,61.64,34.06,36.05
"2017-04-14 09:30:00",283654,0.611,148.8,7.6,43.36,415.7643,0,867.329,0,52.71,2.616,185,0.337,0.655,168.425,0.466,53.05,61.64,34.04,36.05
"2017-04-14 09:40:00",283655,0.46,155.9,7.894,44.23,687.7585,0,867.3183,0,52.63,2.616,180,0.298,0.661,178.9489,0.266,53.11,61.7,34.06,36.06
"2017-04-14 09:50:00",283656,0.57,334.3,7.745,42.78,453.1153,0,867.3157,0,52.51,2.618,188,0.291,0.637,193.4495,0.445,53.11,61.64,34.06,36.05
"2017-04-14 10:00:00",283657,0.404,288.4,8.14,43.31,548.4669,0,867.3087,0,52.16,2.618,198,0.292,0.635,212.9611,0.452,53.11,61.64,34.06,36.05
"2017-04-14 10:10:00",283658,0.35,1.34,8.54,41.64,853.1805,0,867.3191,0,52.17,2.617,194,0.282,0.63,243.5628,0.285,53.11,61.64,34.06,36.05
"2017-04-14 10:20:00",283659,0.515,2.164,8.92,40.79,881.1983,0,867.3338,0,52.35,2.614,192,0.243,0.625,264.3999,0.3,53.05,61.64,34.04,36.05
"2017-04-14 10:30:00",283660,0.665,348.2,8.91,41.4,915.7372,0,867.3129,0,52.05,2.617,190,0.234,0.611,293.5333,0.32,53.11,61.64,34.06,36.05
"2017-04-14 10:40:00",283661,0.619,37.27,9.26,40.14,947.9203,0,867.3075,0,51.39,2.62,189,0.22,0.596,322.0949,0.34,53.05,61.64,34.04,36.05
"2017-04-14 10:50:00",283662,0.666,328.3,9.08,39.92,959.904,0,867.284,0,51.8,2.619,182,0.211,0.587,345.8906,0.36,53.05,61.64,34.04,36.05
"2017-04-14 11:00:00",283663,0.553,7.45,9.24,38.24,984.2906,0,867.1093,0,50.86,2.626,193,0.217,0.594,371.7451,0.378,53.05,61.64,34.04,36.05
"2017-04-14 11:10:00",283664,0.495,353.7,9.55,37.73,999.068,0,867.0453,0,50.61,2.628,198,0.219,0.539,389.1149,0.389,53.11,61.64,34.06,36.05
"2017-04-14 11:20:00",283665,0.642,339.2,9.72,37.17,1010.935,0,866.9515,0,50.96,2.624,186,0.234,0.473,400.8942,0.397,53.05,61.64,34.04,36.05
"2017-04-14 11:30:00",283666,0.93,6.369,9.98,36.14,1029.044,0,866.783,0,51.29,2.62,192,0.146,0.478,414.2326,0.403,53.05,61.64,34.04,36.05
"2017-04-14 11:40:00",283667,0.682,7.077,9.78,36.89,1036.86,0,866.6866,0,50.82,2.624,190,0.12,0.505,420.4834,0.406,53.05,61.64,34.04,36.05
"2017-04-14 11:50:00",283668,0.443,292.8,10.08,37.27,1034.543,0,866.5479,0,50.47,2.626,189,0.116,0.489,421.609,0.408,53.05,61.64,34.04,36.05
"2017-04-14 12:00:00",283669,0.669,359.9,10.44,36.81,1033.308,0,866.3037,0,50.79,2.623,201,0.106,0.473,423.9861,0.41,53.05,61.64,34.04,36.05
"2017-04-14 12:10:00",283670,0.384,38.03,10.62,36.25,1042.681,0,866.2573,0,50.57,2.622,192,0.096,0.47,424.5831,0.407,53.05,61.58,34.04,36.04
"2017-04-14 12:20:00",283671,0.442,90.8,10.84,36.58,1018.148,0,866.1104,0,50.3,2.626,208,0.082,0.471,415.0285,0.408,53,61.58,34.03,36.04
"2017-04-14 12:30:00",283672,0.598,315.8,10.77,36,1017.962,0,865.9286,0,50.55,2.621,187,0.079,0.472,416.4312,0.409,53.05,61.58,34.04,36.04
"2017-04-14 12:40:00",283673,0.561,279.8,11.12,34.57,1008.926,0,865.7579,0,50.45,2.623,186,0.068,0.472,411.1027,0.407,53.05,61.58,34.04,36.04
"2017-04-14 12:50:00",283674,1.03,292.4,10.2,35.25,989.3499,0,865.5895,0,49.98,2.63,188,0.105,0.471,407.0487,0.411,53,61.58,34.03,36.04
"2017-04-14 13:00:00",283675,0.455,270,10.97,35.18,975.9654,0,865.7425,0,50.49,2.621,195,0.125,0.473,402.2808,0.412,53.05,61.58,34.04,36.04
"2017-04-14 13:10:00",283676,0.827,278.2,10.96,33,969.3613,0,865.7012,0,49.63,2.633,226,0.109,0.476,398.0335,0.411,53,61.58,34.03,36.04
"2017-04-14 13:20:00",283677,0.867,291.8,10.65,32.74,922.401,0,865.5263,0,49.14,2.639,190,0.133,0.491,376.2868,0.408,53.05,61.58,34.04,36.04
"2017-04-14 13:30:00",283678,0.726,279.8,10.74,31.78,905.8983,0,865.4671,0,49.72,2.63,190,0.137,0.495,362.1625,0.4,53,61.58,34.03,36.04
"2017-04-14 13:40:00",283679,0.442,277.6,11.31,31.18,924.0592,0,865.4797,0,48.49,2.64,183,0.111,0.495,350.2379,0.379,53,61.58,34.03,36.04
"2017-04-14 13:50:00",283680,0.924,279.1,10.69,33.22,883.7723,0,865.5369,0,49.43,2.634,186,0.104,0.499,295.1888,0.334,53.05,61.58,34.04,36.04
"2017-04-14 14:00:00",283681,0.86,282,10.55,33.1,817.6492,0,865.4991,0,48.64,2.643,190,0.128,0.504,220.5868,0.269,53,61.58,34.03,36.04
"2017-04-14 14:10:00",283682,0.693,285.4,10.38,33.41,537.95,0,865.348,0,49.23,2.638,189,0.151,0.531,170.783,0.351,53.05,61.58,34.04,36.04
"2017-04-14 14:20:00",283683,0.611,271.8,10.65,32.24,552.2245,0,865.2934,0,47.94,2.647,179,0.154,0.544,142.0658,0.272,53.11,61.58,34.06,36.04
"2017-04-14 14:30:00",283684,1.011,279,10.42,30.68,427.3226,0,865.2977,0,48.88,2.643,185,0.162,0.546,136.9373,0.333,53.11,61.64,34.06,36.05
"2017-04-14 14:40:00",283685,0.528,261.5,10.44,31.34,358.9126,0,865.3439,0,48.72,2.64,209,0.182,0.547,150.9881,0.437,53.16,61.64,34.07,36.05
"2017-04-14 14:50:00",283686,0.417,317.2,11.25,30.12,374.8919,0,865.2934,0,48.76,2.638,184,0.16,0.547,131.5318,0.384,53.16,61.64,34.07,36.05
"2017-04-14 15:00:00",283687,0.63,306.6,10.91,30.89,632.2219,0,865.2934,0,48.35,2.643,187,0.123,0.54,141.7032,0.231,53.28,61.76,34.1,36.08
"2017-04-14 15:10:00",283688,0.581,266.5,10.95,29.82,297.5742,0,865.2934,0,48.37,2.644,195,0.117,0.531,88.76624,0.3,53.33,61.88,34.11,36.11
"2017-04-14 15:20:00",283689,0.431,224.6,10.77,30.58,204.9494,0,865.2934,0,47.58,2.654,197,0.178,0.547,71.36303,0.359,53.33,62,34.11,36.13
"2017-04-14 15:30:00",283690,0.41,290.9,10.25,33.45,359.4276,0,865.2955,0,48.03,2.649,201,0.199,0.547,117.1289,0.329,53.45,62.18,34.14,36.17
"2017-04-14 15:40:00",283691,0.276,277.9,10.81,32.53,166.7483,0,865.2934,0,48.11,2.648,202,0.196,0.547,66.17692,0.396,53.56,62.36,34.17,36.21
"2017-04-14 15:50:00",283692,0.277,175.1,10.54,32.55,152.5844,0,865.2934,0,46.84,2.66,181,0.201,0.552,59.69901,0.391,53.61,62.54,34.18,36.25
"2017-04-14 16:00:00",283693,0.506,185.9,10.76,33.14,161.9117,0,865.2934,0,47.31,2.655,187,0.201,0.581,65.89658,0.406,53.67,62.72,34.19,36.3
"2017-04-14 16:10:00",283694,0.436,271.3,10.45,32.83,188.7661,0,865.2556,0,47.93,2.651,186,0.201,0.574,77.69698,0.411,53.78,62.84,34.22,36.32
"2017-04-14 16:20:00",283695,0.295,331.2,10.68,32.54,179.4388,0,865.2703,0,47.98,2.648,185,0.201,0.565,72.3404,0.403,53.78,63.02,34.22,36.36
"2017-04-14 16:30:00",283696,0.423,284.7,10.64,36.79,179.4545,0,865.2787,0,48.56,2.646,192,0.201,0.562,72.54874,0.404,53.84,63.08,34.23,36.38
"2017-04-14 16:40:00",283697,0.164,264.5,10.29,37.87,182.6174,0,865.306,0,47.86,2.651,189,0.202,0.571,73.71559,0.403,53.9,63.2,34.25,36.4
"2017-04-14 16:50:00",283698,0.309,319.1,10.26,40.17,171.7777,0,865.5229,0,47.92,2.651,189,0.208,0.58,69.41383,0.404,53.95,63.32,34.26,36.43
"2017-04-14 17:00:00",283699,0.298,46.89,10.37,39.28,141.8433,0,865.5398,0,47.22,2.659,185,0.218,0.587,56.471,0.398,53.95,63.39,34.26,36.44
"2017-04-14 17:10:00",283700,0.435,292.2,9.58,43.84,92.91264,0,865.5314,0,48.18,2.654,185,0.245,0.583,37.08291,0.399,54.01,63.45,34.27,36.46
"2017-04-14 17:20:00",283701,0.184,275.1,9.29,45.31,65.5316,0,865.5398,0,47.14,2.663,181,0.309,0.582,26.54775,0.405,54.07,63.51,34.29,36.47
"2017-04-14 17:30:00",283702,0.199,273.8,9.12,46.93,50.8091,0,865.5798,0,47.16,2.666,191,0.269,0.602,20.56201,0.405,54.12,63.57,34.3,36.49
"2017-04-14 17:40:00",283703,0.179,221.6,8.74,49.46,29.64637,0,865.7522,0,47.42,2.663,181,0.262,0.645,12.22733,0.413,54.07,63.57,34.29,36.49
"2017-04-14 17:50:00",283704,0.49,66.7,8.79,48.5,22.36593,0,865.819,0,47.03,2.668,182,0.274,0.662,9.617291,0.43,54.07,63.57,34.29,36.49
"2017-04-14 18:00:00",283705,0.428,72.57,8.61,49.46,17.7878,0,865.8499,0,47.52,2.664,191,0.306,0.667,7.628061,0.43,54.07,63.63,34.29,36.5
"2017-04-14 18:10:00",283706,0.729,19.34,8.24,51.33,7.282647,0,865.8802,0,47.25,2.668,178,0.325,0.671,3.414299,0.478,54.12,63.63,34.3,36.5
"2017-04-14 18:20:00",283707,0.27,17.49,7.963,52.41,0.8450016,0,865.888,0,47.52,2.667,188,0.329,0.676,0.7844276,0.468,54.12,63.69,34.3,36.51
"2017-04-14 18:30:00",283708,0.455,36.97,7.659,53.31,0,0,866.0023,0,47.81,2.665,184,0.331,0.685,0,0,54.12,63.69,34.3,36.51
"2017-04-14 18:40:00",283709,0.245,38.6,7.477,53.88,0,0,866.1298,0,47.32,2.67,182,0.331,0.701,0,0,54.12,63.69,34.3,36.51
"2017-04-14 18:50:00",283710,0.266,59.92,7.409,54.1,0,0,866.1428,0,47.45,2.67,183,0.333,0.715,0,0,54.18,63.69,34.32,36.51
"2017-04-14 19:00:00",283711,0.343,78.81,7.306,55.04,0,0,866.3345,0,47.5,2.668,182,0.335,0.704,0,0,54.12,63.75,34.3,36.53
"2017-04-14 19:10:00",283712,0.489,40.23,7.457,55.28,0,0,866.4082,0,47.81,2.666,185,0.338,0.698,0,0,54.12,63.69,34.3,36.51
"2017-04-14 19:20:00",283713,0.546,37.4,7.518,55.25,0,0,866.5704,0,47.57,2.669,190,0.335,0.677,0,0,54.12,63.69,34.3,36.51
"2017-04-14 19:30:00",283714,0.587,108.5,7.208,56.49,0,0,866.5683,0,47.65,2.668,185,0.342,0.674,0,0,54.18,63.69,34.32,36.51
"2017-04-14 19:40:00",283715,0.723,161.8,7.506,54.78,0,0,866.6462,0,47.75,2.666,189,0.337,0.656,0,0,54.12,63.69,34.3,36.51
"2017-04-14 19:50:00",283716,1.07,164.5,7.617,53.77,0,0,866.682,0,47.64,2.666,186,0.341,0.66,0,0,54.12,63.69,34.3,36.51
"2017-04-14 20:00:00",283717,1.004,154.7,7.701,53.11,0,0,866.8842,0,47.64,2.667,186,0.343,0.665,0,0,54.18,63.69,34.32,36.51
"2017-04-14 20:10:00",283718,0.886,160,7.463,53.84,0,0,866.8821,0,47.69,2.667,191,0.361,0.677,0,0,54.12,63.69,34.3,36.51
"2017-04-14 20:20:00",283719,1.049,154.6,7.457,53.68,0,0,866.8969,0,47.8,2.666,185,0.395,0.691,0,0,54.18,63.69,34.32,36.51
"2017-04-14 20:30:00",283720,1.054,156.7,7.562,53.58,0,0,866.9011,0,47.53,2.668,181,0.414,0.715,0,0,54.12,63.63,34.3,36.5
"2017-04-14 20:40:00",283721,1.214,162.3,7.646,53.49,0,0,866.9011,0,47.7,2.666,183,0.42,0.723,0,0,54.12,63.69,34.3,36.51
"2017-04-14 20:50:00",283722,1.009,150.5,7.467,54.52,0,0,866.9011,0,48.01,2.665,192,0.424,0.73,0,0,54.12,63.63,34.3,36.5
"2017-04-14 21:00:00",283723,0.893,167.9,7.256,55.7,0,0,866.9074,0,47.61,2.669,190,0.429,0.728,0,0,54.07,63.57,34.29,36.49
"2017-04-14 21:10:00",283724,0.66,150.8,7.048,57.23,0,0,866.9138,0,47.57,2.671,187,0.431,0.724,0,0,54.12,63.63,34.3,36.5
"2017-04-14 21:20:00",283725,0.842,117.6,6.847,58.4,0,0,866.92,0,47.51,2.672,178,0.451,0.722,0,0,54.07,63.63,34.29,36.5
"2017-04-14 21:30:00",283726,0.702,161.4,6.705,58.99,0,0,866.9306,0,47.98,2.667,187,0.47,0.738,0,0,54.07,63.57,34.29,36.49
"2017-04-14 21:40:00",283727,0.783,146.3,6.844,57.33,0,0,866.9048,0,47.55,2.67,185,0.478,0.745,0,0,54.07,63.57,34.29,36.49
"2017-04-14 21:50:00",283728,0.461,147.6,6.887,55.62,0,0,866.715,0,47.71,2.67,186,0.482,0.718,0,0,54.12,63.57,34.3,36.49
"2017-04-14 22:00:00",283729,1.197,167.7,7.137,52.27,0,0,866.6965,0,47.5,2.668,181,0.471,0.693,0.003790837,0,54.12,63.57,34.3,36.49
"2017-04-14 22:10:00",283730,0.943,143.7,7.214,51.28,0,0,866.7431,0,47.77,2.667,201,0.459,0.715,0,0,54.07,63.51,34.29,36.47
"2017-04-14 22:20:00",283731,0.601,172.9,7.196,50.79,0,0,866.866,0,47.85,2.668,190,0.452,0.718,0,0,54.07,63.51,34.29,36.47
"2017-04-14 22:30:00",283732,0.816,119.3,6.825,52.16,0,0,866.8559,0,47.37,2.672,178,0.458,0.718,0,0,54.07,63.45,34.29,36.46
"2017-04-14 22:40:00",283733,0.755,96.1,7.045,50.3,0,0,866.9048,0,46.76,2.679,173,0.465,0.744,0,0,54.07,63.45,34.29,36.46
"2017-04-14 22:50:00",283734,0.856,151.3,6.881,51.03,0,0,866.9388,0,47.23,2.675,186,0.475,0.737,0,0,54.01,63.45,34.27,36.46
"2017-04-14 23:00:00",283735,0.899,152,6.864,50.99,0,0,866.9373,0,47.79,2.668,189,0.482,0.71,0,0,54.07,63.39,34.29,36.44
"2017-04-14 23:10:00",283736,1.085,145.3,7.208,49.51,0,0,866.7615,0,47.35,2.673,192,0.485,0.726,0,0,54.01,63.39,34.27,36.44
"2017-04-14 23:20:00",283737,0.673,116.3,6.715,51.93,0,0,866.9131,0,47.22,2.677,172,0.489,0.744,0,0,54.01,63.39,34.27,36.44
"2017-04-14 23:30:00",283738,0.66,128.3,6.609,52.59,0,0,866.9435,0,47.49,2.673,183,0.496,0.749,0,0,54.01,63.39,34.27,36.44
"2017-04-14 23:40:00",283739,0.339,82.2,6.477,53.37,0,0,866.9186,0,47.58,2.673,200,0.499,0.722,0,0,54.01,63.32,34.27,36.43
"2017-04-14 23:50:00",283740,0.611,155.4,6.319,54.78,0,0,866.98,0,47.92,2.67,186,0.494,0.696,0,0,54.01,63.32,34.27,36.43
